CW2654 Weather Reports


Display with metric or nautical units.
time (UTC)temp
F
wind
direction
speed
MPH
gust
MPH
rain 1hr
in
rain 24hr
in
rain mn
in
humidity
%
barometer
mb
20260831174602 69 0 1.0 10.0 0.00 0.00 0.00 55 1010.7
20260831173105 68 0 0.0 6.0 0.00 0.00 0.00 62 1010.9
20260831171607 66 338 1.0 10.0 0.00 0.00 0.00 65 1011.0
20260831170107 64 0 2.0 9.0 0.00 0.00 0.00 70 1011.1
20260831164613 62 323 1.0 5.0 0.00 0.00 0.00 76 1011.1
20260831163106 60 0 0.0 5.0 0.00 0.00 0.00 81 1011.2
20260831161610 59 5 1.0 11.0 0.00 0.00 0.00 84 1011.3
20260831160111 57 298 1.0 8.0 0.00 0.00 0.00 87 1011.5
20260831154629 55 264 0.0 3.0 0.00 0.00 0.00 93 1011.8
20260831153101 53 0 0.0 4.0 0.00 0.00 0.00 98 1011.6
20260831151608 50 0 0.0 0.0 0.00 0.00 0.00 98 1011.8
20260831150107 49 0 0.0 0.0 0.00 0.00 0.00 98 1011.8
20260831144604 48 0 0.0 3.0 0.00 0.00 0.00 98 1012.1
20260831143107 47 0 0.0 0.0 0.00 0.00 0.00 98 1011.9
20260831141607 46 0 0.0 0.0 0.00 0.00 0.00 97 1012.0
20260831134607 46 0 0.0 2.0 0.00 0.00 0.00 97 1011.9
20260831133102 46 0 0.0 2.0 0.00 0.00 0.00 97 1011.9
20260831131603 46 0 0.0 3.0 0.00 0.00 0.00 97 1012.0
20260831130111 46 0 0.0 1.0 0.00 0.00 0.00 97 1012.1
20260831124609 46 108 0.0 3.0 0.00 0.00 0.00 97 1012.1
20260831123102 46 0 0.0 2.0 0.00 0.00 0.00 97 1012.2
20260831121609 46 0 0.0 3.0 0.00 0.00 0.00 97 1012.3
20260831120103 47 0 0.0 3.0 0.00 0.00 0.00 97 1012.3
20260831114602 47 0 0.0 3.0 0.00 0.00 0.00 97 1012.5
20260831113102 47 0 0.0 2.0 0.00 0.00 0.00 96 1012.5
20260831111605 47 112 0.0 2.0 0.00 0.00 0.00 97 1012.9
20260831104605 47 0 0.0 0.0 0.00 0.00 0.00 96 1012.9
20260831103100 47 0 0.0 0.0 0.00 0.00 0.00 96 1012.9
20260831101606 48 0 0.0 2.0 0.00 0.00 0.00 96 1013.2
20260831100121 48 0 0.0 2.0 0.00 0.00 0.00 96 1013.2
20260831094601 48 0 0.0 2.0 0.00 0.00 0.00 96 1013.3
20260831093120 48 0 0.0 1.0 0.00 0.00 0.00 96 1013.5
20260831091605 48 0 0.0 3.0 0.00 0.00 0.00 96 1013.6
20260831090129 49 0 0.0 0.0 0.00 0.00 0.00 95 1013.7
20260831084604 49 0 0.0 0.0 0.00 0.00 0.00 95 1013.9
20260831083112 49 0 0.0 2.0 0.00 0.00 0.00 95 1014.0
20260831081606 49 108 0.0 2.0 0.00 0.00 0.00 95 1014.2
20260831080129 50 0 0.0 0.0 0.00 0.00 0.00 95 1014.3
20260831074603 50 0 0.0 0.0 0.00 0.00 0.00 94 1014.7
20260831073100 50 0 0.0 2.0 0.00 0.00 0.00 93 1014.7
20260831071605 51 0 0.0 3.0 0.00 0.00 0.00 94 1014.8
20260831070104 51 112 0.0 2.0 0.00 0.00 0.00 93 1014.9
20260831064608 51 109 0.0 3.0 0.00 0.00 0.00 93 1015.2
20260831063113 51 109 1.0 4.0 0.00 0.00 0.00 94 1015.3
20260831061601 51 109 1.0 3.0 0.00 0.00 0.00 93 1015.4
20260831060106 52 110 1.0 2.0 0.00 0.00 0.00 93 1015.5
20260831054611 52 0 0.0 3.0 0.00 0.00 0.00 92 1015.6
20260831053132 52 0 0.0 3.0 0.00 0.00 0.00 92 1015.8
20260831051602 53 110 1.0 3.0 0.00 0.00 0.00 91 1015.9
20260831050103 53 0 0.0 3.0 0.00 0.00 0.00 90 1016.0
20260831044644 54 0 0.0 3.0 0.00 0.00 0.00 90 1016.1
20260831043103 54 109 0.0 3.0 0.00 0.00 0.00 90 1016.1
20260831041609 55 107 0.0 2.0 0.00 0.00 0.00 88 1016.2
20260831040104 56 0 0.0 3.0 0.00 0.00 0.00 87 1016.4
20260831034609 57 108 1.0 3.0 0.00 0.00 0.00 85 1016.4
20260831033109 58 103 0.0 2.0 0.00 0.00 0.00 84 1016.3
20260831031559 59 0 0.0 3.0 0.00 0.00 0.00 83 1016.3
20260831030104 60 0 0.0 3.0 0.00 0.00 0.00 81 1016.4
20260831024602 62 0 0.0 2.0 0.00 0.00 0.00 77 1016.5
20260831023107 64 0 0.0 3.0 0.00 0.00 0.00 73 1016.6
20260831021558 65 0 0.0 2.0 0.00 0.00 0.00 69 1016.8
20260831020104 65 0 0.0 2.0 0.00 0.00 0.00 68 1016.7
20260831014600 66 0 0.0 3.0 0.00 0.00 0.00 68 1016.9
20260831013059 66 0 0.0 6.0 0.00 0.00 0.00 66 1016.8
20260831011602 67 0 0.0 3.0 0.00 0.00 0.00 63 1016.9
20260831010118 67 0 0.0 3.0 0.00 0.00 0.00 62 1017.1
20260831004610 68 0 0.0 2.0 0.00 0.00 0.00 60 1017.2
20260831003059 69 0 0.0 4.0 0.00 0.00 0.00 59 1017.1
20260831001604 69 331 0.0 5.0 0.00 0.00 0.00 60 1017.2
20260831000109 69 238 0.0 4.0 0.00 0.00 0.00 61 1017.3
20260830234624 68 0 0.0 5.0 0.00 0.00 0.00 59 1017.4
20260830233105 69 0 0.0 4.0 0.00 0.00 0.00 60 1017.6
20260830231607 68 0 0.0 3.0 0.00 0.00 0.00 61 1017.6
20260830230105 68 0 0.0 3.0 0.00 0.00 0.00 61 1017.8
20260830224603 68 0 0.0 5.0 0.00 0.00 0.00 61 1018.1
20260830223102 67 0 1.0 4.0 0.00 0.00 0.00 60 1018.6
20260830221608 67 0 1.0 4.0 0.00 0.00 0.00 61 1018.9
20260830220106 67 243 1.0 4.0 0.00 0.00 0.00 62 1019.1
20260830214607 67 0 0.0 2.0 0.00 0.00 0.00 59 1019.0
20260830213115 67 287 1.0 4.0 0.00 0.00 0.00 62 1019.3
20260830211608 67 0 0.0 4.0 0.00 0.00 0.00 62 1019.4
20260830210105 66 0 0.0 4.0 0.00 0.00 0.00 60 1019.6
20260830204559 66 0 0.0 4.0 0.00 0.00 0.00 63 1019.7
20260830203104 66 0 0.0 4.0 0.00 0.00 0.00 68 1019.9
20260830201607 65 229 0.0 4.0 0.00 0.00 0.00 66 1020.1
20260830200107 63 352 0.0 4.0 0.00 0.00 0.00 68 1020.0
20260830194602 64 0 0.0 4.0 0.00 0.00 0.00 66 1020.2
20260830193104 63 0 0.0 5.0 0.00 0.00 0.00 69 1020.4
20260830191603 62 0 0.0 4.0 0.00 0.00 0.00 72 1020.5
20260830184601 60 0 0.0 2.0 0.00 0.00 0.00 74 1020.8
20260830183104 60 250 1.0 5.0 0.00 0.00 0.00 74 1020.8
20260830181602 59 0 0.0 3.0 0.00 0.00 0.00 74 1020.8